This is the latest recevied weather packets stored in our database for station/object OE6JUE. If no packets are shown the sender has not sent any weather packets the latest 10 day(s).
| Time | Temp. | Humidity | Pressure | Rain* | Wind** | Luminosity | Snow |
|---|---|---|---|---|---|---|---|
| 1777985232 | 23.33° C | 34% | 1011.5 hPa | 0 mm | - | - | - |
| 1777984933 | 23.89° C | 32% | 1011.3 hPa | 0 mm | - | - | - |
| 1777984632 | 24.44° C | 31% | 1011.2 hPa | 0 mm | - | - | - |
| 1777984333 | 25° C | 31% | 1011.2 hPa | 0 mm | - | - | - |
| 1777984033 | 25.56° C | 31% | 1011.2 hPa | 0 mm | - | - | - |
| 1777983733 | 26.11° C | 30% | 1011.2 hPa | 0 mm | - | - | - |
| 1777983433 | 25.56° C | 30% | 1011.6 hPa | 0 mm | - | - | - |
| 1777983132 | 25.56° C | 31% | 1011.4 hPa | 0 mm | - | - | - |
| 1777982834 | 24.44° C | 30% | 1011.4 hPa | 0 mm | - | - | - |
| 1777982533 | 24.44° C | 30% | 1011.4 hPa | - | - | - | - |
| 1777982232 | 24.44° C | 30% | 1011.5 hPa | 0 mm | - | - | - |
| 1777981933 | 25° C | 30% | 1011.3 hPa | 0 mm | - | - | - |
| 1777981633 | 25° C | 30% | 1011.5 hPa | 0 mm | - | - | - |
| 1777981333 | 25° C | 28% | 1011.5 hPa | 0 mm | - | - | - |
| 1777981033 | 26.11° C | 28% | 1011.4 hPa | 0 mm | - | - | - |
| 1777980733 | 26.11° C | 28% | 1011.3 hPa | 0 mm | - | - | - |
| 1777980433 | 26.67° C | 25% | 1011.2 hPa | 0 mm | - | - | - |
| 1777980133 | 26.67° C | 25% | 1011.3 hPa | 0 mm | - | - | - |
| 1777979832 | 26.67° C | 25% | 1011.3 hPa | 0 mm | - | - | - |
| 1777979533 | 26.67° C | 25% | 1011.3 hPa | 0 mm | - | - | - |
| 1777979233 | 26.67° C | 25% | 1011.2 hPa | 0 mm | - | - | - |
| 1777978932 | 26.67° C | 25% | 1011.2 hPa | - | - | - | - |
| 1777978633 | 27.22° C | 26% | 1011.2 hPa | 0 mm | - | - | - |
| 1777978333 | 26.11° C | 25% | 1011.3 hPa | 0 mm | - | - | - |
| 1777978032 | 26.11° C | 25% | 1011.4 hPa | 0 mm | - | - | - |
* Rain latest hour (hover to see other rain measurements)
** Current wind speed in m/s (hover to see current wind gust speed)